Location: Devils Gate
(38.4141°N, 119.1707°W)
Time: 20:50:46
(UTC+00:00)

Daily predictions for brighter satellites

Satellite Brightness Start Highest point End
(mag) Time Altitude Azimuth Time Altitude Azimuth Time Altitude Azimuth
NOSS 0 Rocket 4.5 12:18:00 48° SE 12:19:05 54° ESE 12:25:06 10° NNE
OAO 2 Rocket 4.3 12:32:53 41° ESE 12:32:53 41° ESE 12:36:16 10° E
CZ-4B R/B 4.5 12:29:20 10° SE 12:30:00 14° ESE 12:30:00 14° ESE
Cosmos 540 Rocket 3.7 12:46:31 40° S 12:48:15 68° ESE 12:53:21 10° NNE
Cosmos 1891 Rocket 4.3 12:48:00 10° S 12:54:13 87° W 13:00:20 10° N
USA 306 4.3 12:53:29 31° SSE 12:54:30 36° SE 12:58:24 10° ENE
SL-16 R/B 4.2 12:53:23 10° SSE 12:58:02 27° ESE 13:02:43 10° NE
Cosmos 1464 Rocket 3.8 12:52:19 10° S 12:58:26 89° W 13:04:36 10° N
deb Chang Zheng 4 4.1 12:54:38 10° NNE 12:58:49 56° E 13:02:57 10° S
Lacrosse 5 rocket 3.0 12:59:10 24° NNE 12:59:30 24° NE 13:02:36 10° E
Cosmos 2278 Rocket 2.4 12:59:00 26° N 13:02:15 67° ENE 13:07:53 10° SSE
Cosmos 990 Rocket 3.9 13:03:28 64° SW 13:03:28 64° SW 13:08:12 10° S
Haruka 4.0 13:02:10 37° SW 13:03:40 46° S 13:16:17 10° ESE
Cosmos 1072 Rocket 4.3 12:58:12 10° SSW 13:04:21 73° W 13:10:40 10° N
Gbstr 26 Del rocket 4.3 13:02:46 36° SW 13:06:16 88° NW 13:14:26 10° NE
ERS-2 3.3 13:03:11 10° SE 13:06:36 40° ENE 13:08:27 23° NNE
BREEZE M DEB (TANK) 4.0 13:08:50 18° E 13:08:50 18° E 13:09:33 10° ESE
CZ-4B R/B 3.2 13:04:34 10° NNE 13:08:10 57° E 13:11:52 10° S
Cosmos 2237 Rocket 2.0 13:04:57 23° SSW 13:08:35 81° WNW 13:14:18 10° NNE
Cosmos 2219 Rocket 3.9 13:13:21 17° NNW 13:13:21 17° NNW 13:14:59 10° N
Meteor PRIRODA 4.0 13:10:20 10° NNE 13:13:56 63° E 13:17:30 10° S
Cosmos 1400 Rocket 3.8 13:10:12 10° S 13:14:07 48° E 13:18:05 10° NNE
Cosmos 1689 Rocket 4.1 13:14:52 10° SE 13:17:25 28° ENE 13:19:04 16° NNE
SL-4 R/B 1.7 13:17:37 78° SSW 13:17:48 83° SE 13:21:45 10° NE
Atlas Centaur 2 3.6 13:14:34 26° SW 13:18:40 48° S 13:26:43 10° ESE
CZ-2C R/B 1.9 13:18:04 43° SSW 13:18:47 48° S 13:22:42 10° E
Cosmos 2333 Rocket 4.1 13:21:33 14° NNW 13:21:33 14° NNW 13:22:54 10° N
Meteor 1-21 Rocket 4.4 13:13:34 10° N 13:19:20 79° E 13:25:11 10° SSE
NOSS 3-2 (A) 3.9 13:15:52 10° SSW 13:21:11 55° ESE 13:27:09 10° NE
CZ-3 Stage 3 2.7 13:22:02 22° SSW 13:22:11 22° S 13:24:10 10° SE
BREEZE-M DEB (TANK) 1.9 13:22:10 74° WSW 13:22:25 84° NNW 13:28:29 10° NE
Lacrosse 4 Rocket 1.9 13:18:56 10° SSW 13:23:03 61° ESE 13:27:19 10° NNE
ADEOS 3.8 13:19:37 10° N 13:24:31 42° WNW 13:25:19 39° W
Cosmos 858 Rocket 4.4 13:22:25 26° NNW 13:25:22 71° WSW 13:30:32 10° S
ATLAS 5 CENTAUR R/B 1.6 13:29:14 52° NNW 13:29:50 77° NE 13:35:42 10° SE
Cosmos 841 Rocket 3.5 13:26:55 18° SW 13:30:31 51° WNW 13:35:33 10° N
Cosmos 1908 3.0 13:26:52 10° S 13:30:39 84° W 13:34:29 10° N
Cosmos 2034 Rocket 4.0 13:31:11 10° SSW 13:37:28 63° W 13:43:47 10° N
COSMOS 2428 4.3 13:40:48 17° NW 13:40:48 17° NW 13:43:17 10° N
COSMO-SKYMED 1 2.7 13:35:27 10° S 13:39:38 49° W 13:42:22 20° NNW
Cosmos 1898 Rocket 4.1 13:39:40 30° WNW 13:40:45 33° W 13:45:20 10° SSW
Meteor 2-13 Rocket 4.4 13:35:25 10° NNW 13:41:32 69° W 13:47:36 10° S
Cosmos 1980 4.1 13:38:39 19° WSW 13:42:10 39° WNW 13:47:29 10° N
Nadezhda 4 Rocket 3.9 13:37:08 10° NNW 13:43:13 68° W 13:49:15 10° S
SAR-Lupe-4 3.4 13:40:16 10° SSE 13:43:50 86° WSW 13:47:26 10° NNW
Cosmos 1953 2.8 13:41:10 10° SW 13:44:48 34° WNW 13:48:27 10° NNW
SL-8 R/B 3.7 13:43:49 28° WNW 13:46:19 77° SW 13:51:08 10° SE
Cosmos 44 Rocket 3.6 13:44:31 23° NW 13:47:36 53° WSW 13:52:36 10° S
Cosmos 1634 Rocket 4.2 13:45:17 10° S 13:51:24 76° E 13:57:34 10° N
Cosmos 1340 2.5 13:48:32 10° NNW 13:52:18 73° W 13:56:02 10° S
CENTAUR R/B 3.0 13:47:15 10° SSW 13:52:46 60° ESE 13:59:15 10° NE
Cosmos 1544 Rocket 4.3 13:50:41 10° SW 13:54:23 27° WNW 13:58:06 10° NNW
Cosmos 1570 Rocket 4.4 13:50:21 10° SW 13:55:11 38° WNW 14:00:04 10° N
Cosmos 2098 Rocket 4.4 13:50:16 10° N 13:55:57 50° ENE 14:00:26 10° SSE
Spot 2 4.5 13:52:57 10° NNE 13:56:58 61° ESE 14:01:01 10° S
ATLAS CENTAUR R/B 1.1 13:54:29 10° SW 13:58:07 52° WNW 14:01:43 10° NNE
SAR-Lupe-1 4.2 13:56:35 10° S 14:00:03 51° W 14:03:34 10° NNW
Cosmos 2298 Rocket 4.4 13:54:55 10° NNW 14:00:15 68° ENE 14:05:32 10° SSE
SMAP 3.8 13:58:09 10° NNE 14:02:44 56° E 14:07:18 10° S
FALCON 9 DEB 4.4 14:00:01 10° SSW 14:02:55 37° SE 14:05:49 10° ENE
SJ-7 4.5 13:59:36 10° N 14:03:39 55° WNW 14:07:38 10° SSW
CZ-4B R/B 3.4 14:02:12 10° SW 14:03:06 13° WSW 14:03:06 13° WSW
Cosmos 1315 Rocket 3.3 14:01:30 10° S 14:05:21 62° E 14:09:13 10° NNE
Cosmos 372 Rocket 4.1 14:01:20 10° NNW 14:06:28 56° WSW 14:11:33 10° S
Cosmos 2228 3.3 14:02:36 10° S 14:06:49 69° E 14:11:02 10° NNE
CZ-4B DEB 4.3 14:01:34 10° NNE 14:07:10 90° ESE 14:12:43 10° SSW
Cosmos 1606 Rocket 4.1 14:03:09 10° S 14:07:23 61° E 14:11:39 10° NNE
MOS 1 Rocket 4.0 14:07:35 10° SSW 14:12:08 34° W 14:16:29 10° NNW
H-2A R/B 2.8 14:09:07 10° NNE 14:13:38 78° ESE 14:18:08 10° S
USA 307 3.2 14:10:10 10° WSW 14:14:12 47° NW 14:18:17 10° NE
DMSP B5D1-3 4.5 14:09:09 10° S 14:14:12 65° WSW 14:19:17 10° NNW
USA 238 DEB 3.6 14:07:50 10° SW 14:14:21 74° NW 14:21:10 10° NNE
USA 238 3.6 14:07:57 10° SW 14:14:26 75° NW 14:21:16 10° NNE
Cosmos 1125 Rocket 4.1 14:10:10 10° NNW 14:15:26 62° ENE 14:20:41 10° SSE
OAO 2 Rocket 4.0 14:11:50 13° W 14:15:55 42° SSW 14:20:32 10° SE
Cosmos 1626 Rocket 4.3 14:12:00 10° NNW 14:15:58 32° W 14:19:56 10° SSW
Cosmos 1703 3.9 14:13:18 10° NNW 14:16:48 32° W 14:20:17 10° SSW
YAOGAN 6 3.2 14:13:56 10° N 14:17:20 36° WNW 14:20:44 10° SW
Envisat 3.2 14:12:54 10° N 14:17:48 49° WNW 14:22:39 10° SW
Cosmos 2026 Rocket 4.0 14:13:27 10° N 14:19:48 76° W 14:26:10 10° S
H-2A R/B 3.9 14:17:24 10° NNW 14:20:17 22° WNW 14:23:10 10° WSW
USA 305 3.4 14:18:27 10° WSW 14:22:26 39° NW 14:26:26 10° NE
USA 308 3.4 14:19:03 10° WSW 14:23:03 40° NW 14:27:03 10° NE
Cosmos 1346 Rocket 2.7 14:24:50 10° NNW 14:28:47 70° W 14:32:45 10° S
NOAA 12 4.1 14:27:02 10° N 14:32:19 76° WNW 14:37:36 10° SSW
NOAA 6 4.2 14:28:00 10° N 14:33:01 50° WNW 14:37:59 10° SW
USA 306 3.7 14:30:38 10° W 14:34:29 33° NNW 14:38:21 10° NNE
MOS 1-B 4.4 14:28:50 10° N 14:34:32 63° WNW 14:40:13 10° SSW
Cosmos 1455 4.4 14:33:26 10° SSE 14:36:42 30° E 14:40:00 10° NNE
Lacrosse 5 rocket 1.9 14:35:12 10° WNW 14:38:40 34° SW 14:42:00 10° SSE
Cosmos 2369 Rocket 3.5 14:33:53 10° N 14:39:06 39° ENE 14:44:17 10° SE
Cosmos 1758 Rocket 3.9 14:35:21 10° NNW 14:39:39 46° W 14:43:53 10° SSW
CZ-2C R/B 2.6 14:35:52 10° S 14:41:02 68° WSW 14:46:21 10° NNW
SL-16 R/B 2.7 14:36:39 10° SW 14:41:55 39° WNW 14:47:12 10° N
Cosmos 1943 Rocket 2.5 14:37:06 10° NNW 14:42:46 73° ENE 14:48:25 10° SSE
